Iron Mountain, MI

3:49 AM CDT on May 27, 2017 (GMT -0500)
Ford

Weather History for KIMT - September, 2012

Change the Weather History Date:

Sunday, September 30, 2012

  Actual Average Record
Temperature  
Mean Temperature 48 °F -  
Max Temperature 66 °F 62 °F 80 °F (1950)
Min Temperature 33 °F 40 °F 23 °F (1939)
Degree Days  
Heating Degree Days 16    
Moisture  
Dew Point 38 °F    
Average Humidity 86    
Maximum Humidity 100    
Minimum Humidity 41    
Precipitation  
Precipitation 0.00 in - - ()
Sea Level Pressure  
Sea Level Pressure 30.04 in    
Wind  
Wind Speed 2 mph (NW)    
Max Wind Speed 7 mph    
Max Gust Speed -    
Visibility 5 miles    
Events Fog    
Averages and records for this station are not official NWS values.
T = Trace of Precipitation, MM = Missing Value Source: NWS Daily Summary

Daily Weather History Graph

Daily Weather History Graph

Search for Another Location

Airport or City:

Trip Planner

Search our weather history database for the weather conditions in past years. The results will help you decide how hot, cold, wet, or windy it might be!

Date:

Astronomy

Sep. 30, 2012 Rise Set
Actual Time 6:50 AM CDT 6:33 PM CDT
Civil Twilight 6:20 AM CDT 7:03 PM CDT
Nautical Twilight 5:45 AM CDT 7:37 PM CDT
Astronomical Twilight 5:10 AM CDT 8:12 PM CDT
Moon 6:31 PM CDT (9/30) 7:25 AM CDT (9/30)
Length of Visible Light 12h 42m
Length of Day
11h 43m
Full, 100% of the Moon is Illuminated
Sep 30
Full
Oct 8
Last Quarter
Oct 15
New
Oct 21
First Quarter
Oct 29
Full

Hourly Weather History & Observations

Time (CDT) Temp. Windchill Dew Point Humidity Pressure Visibility Wind Dir Wind Speed Gust Speed Precip Events Conditions
12:54 AM 41.0 °F - 39.0 °F 93% 30.08 in 10.0 mi Calm Calm - N/A   Clear
1:12 AM 37.4 °F - 35.6 °F 93% 30.06 in 1.8 mi Calm Calm - N/A   Clear
1:24 AM 37.4 °F - 37.4 °F 100% 30.06 in 0.5 mi Calm Calm - N/A Fog Fog
1:44 AM 37.4 °F - 37.4 °F 100% 30.06 in 2.5 mi Calm Calm - N/A   Clear
1:51 AM 33.8 °F - 33.8 °F 100% 30.06 in 9.0 mi Calm Calm - N/A   Clear
1:54 AM 36.0 °F - 33.1 °F 89% 30.08 in 8.0 mi Calm Calm - N/A   Clear
2:10 AM 35.6 °F 32.8 °F 33.8 °F 93% 30.06 in 5.0 mi NNW 3.5 mph - N/A   Partly Cloudy
2:39 AM 35.6 °F - 33.8 °F 93% 30.06 in 2.5 mi Calm Calm - N/A   Mostly Cloudy
2:46 AM 37.4 °F - 35.6 °F 93% 30.06 in 3.0 mi Calm Calm - N/A   Mostly Cloudy
2:54 AM 35.1 °F - 34.0 °F 96% 30.07 in 5.0 mi Calm Calm - N/A   Mostly Cloudy
3:12 AM 35.6 °F 32.8 °F 33.8 °F 93% 30.05 in 10.0 mi NW 3.5 mph - N/A   Scattered Clouds
3:29 AM 35.6 °F - 33.8 °F 93% 30.05 in 1.8 mi Calm Calm - N/A   Partly Cloudy
3:33 AM 35.6 °F - 33.8 °F 93% 30.05 in 1.0 mi Calm Calm - N/A   Mist
3:40 AM 35.6 °F - 33.8 °F 93% 30.05 in 0.5 mi Calm Calm - N/A Fog Fog
3:52 AM 35.6 °F - 35.6 °F 100% 30.05 in 2.5 mi Calm Calm - N/A   Mostly Cloudy
3:54 AM 36.0 °F - 35.1 °F 97% 30.06 in 6.0 mi Calm Calm - N/A   Mostly Cloudy
4:09 AM 35.6 °F - 33.8 °F 93% 30.05 in 1.5 mi Calm Calm - N/A   Mostly Cloudy
4:11 AM 35.6 °F - 33.8 °F 93% 30.05 in 0.8 mi Calm Calm - N/A   Mist
4:23 AM 35.6 °F - 35.6 °F 100% 30.05 in 1.2 mi Calm Calm - N/A   Scattered Clouds
4:31 AM 35.6 °F 32.8 °F 35.6 °F 100% 30.05 in 4.0 mi NW 3.5 mph - N/A   Partly Cloudy
4:52 AM 33.8 °F - 32.0 °F 93% 30.05 in 1.5 mi Calm Calm - N/A   Mostly Cloudy
5:01 AM 33.8 °F 30.8 °F 33.8 °F 100% 30.05 in 0.5 mi North 3.5 mph - N/A Fog Fog
5:20 AM 35.6 °F 31.7 °F 33.8 °F 93% 30.05 in 0.8 mi North 4.6 mph - N/A   Mist
5:31 AM 35.6 °F 32.8 °F 35.6 °F 100% 30.04 in 0.2 mi NNW 3.5 mph - N/A Fog Fog
5:54 AM 37.0 °F 34.5 °F 36.0 °F 96% 30.06 in 0.2 mi WNW 3.5 mph - N/A Fog Fog
6:04 AM 37.4 °F 34.9 °F 37.4 °F 100% 30.04 in 0.2 mi NW 3.5 mph - N/A Fog Fog
6:26 AM 37.4 °F 33.8 °F 37.4 °F 100% 30.04 in 0.2 mi NW 4.6 mph - N/A Fog Fog
6:54 AM 37.0 °F 33.3 °F 36.0 °F 96% 30.06 in 0.2 mi NW 4.6 mph - N/A Fog Fog
7:01 AM 37.4 °F 34.9 °F 35.6 °F 93% 30.04 in 0.2 mi NW 3.5 mph - N/A Fog Fog
7:10 AM 37.4 °F 34.9 °F 35.6 °F 93% 30.04 in 0.2 mi NW 3.5 mph - N/A Fog Fog
7:54 AM 37.9 °F 35.5 °F 37.0 °F 97% 30.09 in 0.2 mi NNW 3.5 mph - N/A Fog Fog
9:19 AM 44.6 °F 42.2 °F 44.6 °F 100% 30.06 in 1.0 mi NNW 4.6 mph - N/A   Mist
9:22 AM 46.4 °F 44.3 °F 44.6 °F 93% 30.06 in 3.0 mi North 4.6 mph - N/A   Mostly Cloudy
9:34 AM 46.4 °F 45.2 °F 44.6 °F 93% 30.06 in 10.0 mi NNW 3.5 mph - N/A   Scattered Clouds
9:54 AM 48.0 °F - 45.0 °F 89% 30.08 in 10.0 mi Variable 3.5 mph - N/A   Clear
10:54 AM 55.9 °F - 43.0 °F 62% 30.07 in 10.0 mi Variable 5.8 mph - N/A   Clear
11:54 AM 60.1 °F - 42.1 °F 51% 30.06 in 10.0 mi SSE 6.9 mph - N/A   Partly Cloudy
12:54 PM 61.0 °F - 42.1 °F 50% 30.04 in 10.0 mi Variable 5.8 mph - N/A   Partly Cloudy
1:54 PM 63.0 °F - 42.1 °F 46% 30.02 in 10.0 mi Variable 3.5 mph - N/A   Clear
2:54 PM 64.0 °F - 41.0 °F 43% 30.01 in 10.0 mi Calm Calm - N/A   Clear
3:54 PM 64.0 °F - 39.9 °F 41% 29.99 in 10.0 mi Variable 3.5 mph - N/A   Clear
4:54 PM 64.0 °F - 39.9 °F 41% 29.98 in 10.0 mi South 3.5 mph - N/A   Clear
5:54 PM 62.1 °F - 41.0 °F 46% 29.97 in 10.0 mi SSE 4.6 mph - N/A   Clear
6:54 PM 55.0 °F - 42.1 °F 62% 29.98 in 10.0 mi Calm Calm - N/A   Clear
7:54 PM 53.1 °F - 44.1 °F 71% 29.98 in 10.0 mi SE 5.8 mph - N/A   Clear
9:54 PM 48.0 °F - 43.0 °F 83% 29.98 in 10.0 mi Calm Calm - N/A   Clear
11:54 PM 45.0 °F 43.5 °F 43.0 °F 93% 29.96 in 10.0 mi SSE 3.5 mph - N/A   Clear